This is the latest recevied weather packets stored in our database for station/object KC1IUC-15. If no packets are shown the sender has not sent any weather packets the latest 10 day(s).
| Time | Temp. | Humidity | Pressure | Rain* | Wind** | Luminosity | Snow |
|---|---|---|---|---|---|---|---|
| 1777398303 | 21.11° C | 38% | 1019.8 hPa | 0 mm | - | 476 W/m² | - |
| 1777398003 | 21.11° C | 36% | 1019.5 hPa | 0 mm | - | 522 W/m² | - |
| 1777397703 | 21.11° C | 34% | 1019.8 hPa | 0 mm | - | 610 W/m² | - |
| 1777397403 | 20.56° C | 35% | 1019.8 hPa | 0 mm | - | 632 W/m² | - |
| 1777397103 | 20.56° C | 35% | 1019.8 hPa | 0 mm | - | 560 W/m² | - |
| 1777396803 | 21.11° C | 35% | 1019.5 hPa | 0 mm | - | 604 W/m² | - |
| 1777396503 | 21.11° C | 33% | 1019.8 hPa | 0 mm | - | 646 W/m² | - |
| 1777396203 | 20° C | 36% | 1019.8 hPa | 0 mm | - | 656 W/m² | - |
| 1777395903 | 20° C | 34% | 1019.8 hPa | 0 mm | - | 733 W/m² | - |
| 1777395603 | 20.56° C | 34% | 1020.2 hPa | 0 mm | - | 638 W/m² | - |
| 1777395303 | 20° C | 38% | 1020.2 hPa | 0 mm | - | 620 W/m² | - |
| 1777395003 | 19.44° C | 37% | 1020.2 hPa | 0 mm | - | 633 W/m² | - |
| 1777394703 | 20° C | 38% | 1019.8 hPa | 0 mm | - | 695 W/m² | - |
| 1777394403 | 20° C | 35% | 1020.2 hPa | 0 mm | - | 703 W/m² | - |
| 1777394103 | 20° C | 37% | 1020.2 hPa | 0 mm | - | 668 W/m² | - |
| 1777393803 | 19.44° C | 35% | 1020.2 hPa | 0 mm | - | 606 W/m² | - |
| 1777393503 | 19.44° C | 34% | 1020.2 hPa | 0 mm | - | 440 W/m² | - |
| 1777393203 | 20° C | 37% | 1020.2 hPa | 0 mm | - | 439 W/m² | - |
| 1777392903 | 19.44° C | 38% | 1020.5 hPa | 0 mm | - | 506 W/m² | - |
| 1777392603 | 19.44° C | 37% | 1020.5 hPa | 0 mm | - | 483 W/m² | - |
| 1777392303 | 18.33° C | 41% | 1020.5 hPa | 0 mm | - | 671 W/m² | - |
| 1777392003 | 19.44° C | 35% | 1020.5 hPa | 0 mm | - | 639 W/m² | - |
| 1777391703 | 19.44° C | 34% | 1020.8 hPa | 0 mm | - | 644 W/m² | - |
| 1777391403 | 20° C | 38% | 1020.5 hPa | 0 mm | - | 540 W/m² | - |
| 1777391103 | 19.44° C | 37% | 1020.5 hPa | 0 mm | - | 653 W/m² | - |
* Rain latest hour (hover to see other rain measurements)
** Current wind speed in m/s (hover to see current wind gust speed)